Powrót do katalogu

CZ-6A DEB

AktywnySSO
NORAD 55547·DEBRIS·🇨🇳 China

Wystrzelony Nov 11, 2022 z Taiyuan Satellite Launch Center

Loading…

Następne Przeloty (najbliższe 24 godziny)

TLE

ŚwieżeSource: Space-Track

Epoka: Sep 12, 2026, 21:50 UTC

1 55547U 22151YV  26255.91036685  .00002619  00000-0  13848-2 0  9999
2 55547  98.9129 250.0469 0090995 137.3966 223.4311 14.12524568191149

Śledź CZ-6A DEB w czasie rzeczywistym z AllMySat

Download on the App Store